Regional Weather Roundup
Issued by NWS

Home | Current Version | Previous Version | Graphics & Text | Print | Product List | Glossary On
Versions: 1 2 3 4 5 6 7 8 9 10 11 12 13 14 15 16 17 18 19 20 21 22 23 24 25 26 27 28 29 30 31 32 33 34 35 36 37 38 39 40 41 42 43 44 45 46 47 48 49 50
000
ASUS43 KLSX 041407
RWRMO

WEATHER SUMMARY FOR MISSOURI
NATIONAL WEATHER SERVICE SPRINGFIELD MO
900 AM CDT SAT JUL 04 2015

NOTE: "FAIR" INDICATES FEW OR NO CLOUDS BELOW 12,000 FEET WITH NO
       SIGNIFICANT WEATHER AND/OR OBSTRUCTIONS TO VISIBILITY.
       CURRENT SKY AND/OR WEATHER CONDITIONS ARE NOT AVAILABLE FOR
       CHILLICOTHE AND FARMINGTON.

MOZ001>031-035>038-043-044-053-054-041500-
...NORTHERN AND WESTERN MISSOURI...

CITY           SKY/WX    TMP DP  RH WIND       PRES   REMARKS
KANSAS CTY INT PTSUNNY   71  62  73 SE5       30.02R
KANSAS C DTWN  SUNNY     72  63  73 CALM      30.01S
LEE`S SUMMIT   SUNNY     70  62  76 CALM      30.03R
ST JOSEPH      SUNNY     69  63  81 CALM      30.02R
CHILLICOTHE      N/A     71  64  78 CALM      30.04R
KIRKSVILLE     LGT RAIN  71  61  70 E3        30.04R

$$
MOZ066>068-077>081-088>096-101>105-041500-
...SOUTHWEST MISSOURI...

CITY           SKY/WX    TMP DP  RH WIND       PRES   REMARKS
SPRINGFIELD    MOSUNNY   74  64  71 E6        30.02R
JOPLIN         MOSUNNY   73  66  78 E7        30.01R

$$
MOZ032>034-039>042-045>050-055>058-069>072-041500-
...CENTRAL MISSOURI...

CITY           SKY/WX    TMP DP  RH WIND       PRES   REMARKS
COLUMBIA       SUNNY     72  63  73 E3        30.04R
JEFFERSON CITY SUNNY     70  62  76 CALM      30.03R
ROLLA          SUNNY     70  66  87 E6        30.03R FOG
SEDALIA        SUNNY     72  63  73 SE6       30.05R
WHITEMAN AFB   SUNNY     70  64  79 SE3       30.02R
WARRENSBURG    SUNNY     70  63  78 E3        30.03R
OSAGE BEACH    SUNNY     70  63  78 SE3       30.04R

$$
MOZ051-052-059>065-041500-
...EAST CENTRAL MISSOURI...

CITY           SKY/WX    TMP DP  RH WIND       PRES   REMARKS
ST LOUIS INTL  SUNNY     74  65  73 CALM      30.03R HAZE
SPIRIT OF STL  SUNNY     71  68  90 CALM      30.03R FOG
ST CHARLES     SUNNY     72  68  87 CALM      30.02R FOG

$$
MOZ072>076-082>087-097>100-106>115-041500-
...SOUTH CENTRAL AND SOUTHEAST MISSOURI...

CITY           SKY/WX    TMP DP  RH WIND       PRES   REMARKS
CAPE GIRARDEAU MOSUNNY   75  69  81 E5        29.99R HAZE
FARMINGTON     PTSUNNY   70  68  94 E3        30.07R
POPLAR BLUFF   MOSUNNY   74  69  85 E3        29.99R HAZE
WEST PLAINS    MOSUNNY   73  67  81 E6        30.03S

$$


USA.gov is the U.S. government's official web portal to all federal, state and local government web resources and services.